Location: Ammareddip?lem
(16.9681°N, 80.4999°E)
Time: 13:26:21
(UTC+00:00)

Envisat - Pass Details

Date: 21 October 2021
Orbit: 764 x 766 km, 98.2° (Epoch: 04 December)

Event Time Altitude Azimuth Distance (km) Brightness Sun altitude
Rises 22:59:38 0° 23° (NNE) 3,223 6.5 -22.8°
Reaches altitude 10° 23:02:04 10° 31° (NNE) 2,296 5.8 -22.3°
Maximum altitude 23:06:47 40° 100° (E) 1,121 4.4 -21.1°
Drops below altitude 10° 23:11:30 10° 169° (S) 2,291 5.7 -20.0°
Sets 23:13:55 0° 176° (S) 3,215 6.3 -19.4°
